Regional Weather Roundup
Issued by NWS New Orleans/Baton Rouge, LA

Home | Current Version | Previous Version | Text Only | Print | Product List | Glossary Off
Versions: 1 2 3 4 5 6 7 8 9 10 11 12 13 14 15 16 17 18 19 20 21 22 23 24 25 26 27 28 29 30 31 32 33 34 35 36 37 38 39 40 41 42 43 44 45 46 47 48 49 50

241
ASUS44 KLIX 230101
RWRLIX
NEW ORLEANS REGIONAL WEATHER ROUNDUP
NATIONAL WEATHER SERVICE NEW ORLEANS LA
800 PM CDT TUE APR 22 2014

NOTE: "FAIR" INDICATES FEW OR NO CLOUDS BELOW 12,000 FEET WITH NO
      SIGNIFICANT WEATHER AND/OR OBSTRUCTIONS TO VISIBILITY.
      SKY/WX - SKY CONDITION AND SIGNIFICANT WEATHER.
      TMP - AIR TEMPERATURE.     DP    - DEWPOINT TEMPERATURE.
      RH  - RELATIVE HUMIDITY.   PRES  - PRESSURE.
      HI  - HEAT INDEX.          WCI   - WIND CHILL INDEX.

*  THESE STATIONS ARE NOT NWS OR FAA STATIONS AND ARE NOT UNDER
   NWS QUALITY CONTROL.

LAZ038-040-048-061>063-065>067-069-230200-
SOUTHEAST LOUISIANA

CITY           SKY/WX    TMP DP  RH WIND       PRES   REMARKS
N.O. AUDUBON   NOT AVBL
N.O. INTL ARPT PTCLDY    73  63  70 NW7       29.90R
N.O. LAKEFRONT CLEAR     71  66  84 W8        29.90R
N.O. DOWNTOWN*   N/A     75  63  64 CALM      29.90R
SLIDELL        CLEAR     72  63  73 CALM      29.89R
BATON ROUGE    CLEAR     72  60  66 CALM      29.90R
BOOTHVILLE     CLEAR     70  67  90 W3        29.90R
BELLE CHASSE   PTCLDY    68  64  87 CALM      29.89R
BOGALUSA*        N/A     70  63  78 CALM      29.91R
GALLIANO*      NOT AVBL
NEW ROADS*     NOT AVBL
GONZALES*        N/A     70  64  83 CALM      29.90R
HAMMOND*       NOT AVBL
HOUMA*         NOT AVBL
PORT FOURCHON* CLEAR     72  68  88 W9        29.92S

$$

MSZ070-080>082-230200-
SOUTHERN MISSISSIPPI

CITY           SKY/WX    TMP DP  RH WIND       PRES   REMARKS
MCCOMB         CLEAR     69  62  78 CALM      29.91R
GULFPORT       MOCLDY    73  66  78 CALM      29.88R
BILOXI         CLOUDY    69  66  91 SW6       29.88R
PASCAGOULA     CLOUDY    70  65  84 W3        29.88R
STENNIS ARPT*  PTCLDY    70  63  78 CALM      29.89R

$$

COASTAL OBSERVATIONS
LAKE AND NEARSHORE STATIONS

STATION/POSITION TIME  TEMP    WIND        PRES    WAVE
                       AIR SEA DIR/SP/G            HT/PER
                 (UTC) (F)     (DEG/KT/KT) (MB)    (FT/S)
PASCAGOULA       0000   71     240/  7/  9 1011.1
WAVELAND YACHT   0000   73 72  290/  5/  7 1010.9
GRAND ISLE       0000   73 73  270/  8/ 11 1013.0
SOUTHWEST PASS   0000   68 60  280/ 13/ 14 1013.0
NEW CANAL        0000   74 69  280/  2/  5 1012.5
SHELL BEACH      0000   72 67  230/  6/  6 1011.8

OFFSHORE STATIONS

STATION/POSITION TIME  TEMP    WIND        PRES    WAVE
                       AIR SEA DIR/SP/G            HT/PER
                 (UTC) (F)     (DEG/KT/KT) (MB)    (FT/S)
64 S DAUPHIN ISL 0040   70 70  260/ 12/ 14 1012.5

$$




USA.gov is the U.S. government's official web portal to all federal, state and local government web resources and services.